Home > Weather > Houston > Past weeks

Flag for USA Weather for the Past 2 Weeks in Houston, Texas, USA

Now
75 °F

Overcast.


Feels Like: 74 °F
Forecast: 73 / 82 °F
Wind: 13 mph from Northeast

Location: Houston Hobby Airport

Current Time: May 1, 2016 at 8:51:11 AM

Latest Report: May 1, 2016 at 7:53 AM


Visibility: 10 mi

Pressure: 29.82 "Hg

Humidity: 88%

Dew Point: 71 °F

Location of HoustonLocation

Historic Weather in Houston — Graph

°F

Houston Temperature Yesterday

Maximum temperature yesterday: 86 °F (at 2:53 PM)
Minimum temperature yesterday: 70 °F (at 9:53 AM)
Average temperature yesterday: 79 °F

High & Low Weather Summary for the Past Weeks

 TemperatureHumidityPressure
High86 °F (Apr 30, 2:53 PM)100% (Apr 18, 10:00 AM)30.14 "Hg (Apr 18, 10:00 AM)
Low62 °F (Apr 23, 5:53 AM)32% (Apr 23, 3:53 PM)29.62 "Hg (Apr 27, 4:53 AM)
Average74 °F82%29.90 "Hg
* Reported Apr 16 7:53 AM — May 1 7:53 AM, Houston, Weather by CustomWeather, © 2016

Note: Actual official high and low records may vary slightly from our data, if they occured in-between our weather recording intervals... More about our weather records

Advertising

Houston Weather History for the Previous 24 Hours

Scroll right to see more
 ConditionsComfort  
Time TempWeatherWind HumidityBarometerVisibility
7:53 AM
Sun, May 1
75 °FOvercast.13 mph88%29.82 "Hg10 mi
6:53 AM75 °FOvercast.9 mph90%29.79 "Hg10 mi
5:53 AM76 °FLow clouds.12 mph94%29.79 "Hg8 mi
4:53 AM77 °FMostly cloudy.7 mph94%29.78 "Hg8 mi
3:53 AM78 °FFog.5 mph90%29.78 "Hg7 mi
2:53 AM78 °FFog.5 mph93%29.79 "Hg6 mi
1:53 AM77 °FPassing clouds.3 mph94%29.80 "Hg7 mi
12:53 AM77 °FPassing clouds.5 mph94%29.80 "Hg8 mi
11:53 PM
Sat, Apr 30
77 °FPassing clouds.3 mph90%29.79 "Hg9 mi
10:53 PM78 °FPassing clouds.5 mph90%29.79 "Hg10 mi
9:53 PM77 °FPassing clouds.5 mph90%29.77 "Hg10 mi
8:53 PM79 °FPartly sunny.7 mph84%29.75 "Hg10 mi
7:53 PM81 °FBroken clouds.7 mph79%29.72 "Hg10 mi
6:53 PM83 °FPartly sunny.7 mph72%29.69 "Hg10 mi
5:53 PM85 °FPartly sunny.7 mph68%29.69 "Hg10 mi
4:53 PM86 °FBroken clouds.6 mph63%29.67 "Hg10 mi
3:53 PM85 °FPartly sunny.No wind61%29.68 "Hg10 mi
2:53 PM86 °FPartly sunny.6 mph61%29.69 "Hg10 mi
1:53 PM84 °FPartly sunny.8 mph63%29.70 "Hg10 mi
12:53 PM82 °FScattered clouds.7 mph60%29.72 "Hg10 mi
11:53 AM80 °FScattered clouds.9 mph62%29.74 "Hg10 mi
10:53 AM74 °FScattered clouds.13 mph71%29.75 "Hg10 mi
9:53 AM70 °FBroken clouds.16 mph93%29.76 "Hg10 mi
8:53 AM73 °FLight rain. Mostly cloudy.21 mph94%29.74 "Hg7 mi
Weather by CustomWeather, © 2016

See weather overviewHow to use our weather pages